D2913 Weather Reports


Display with metric or nautical units.
time (UTC)temp
F
wind
direction
speed
MPH
gust
MPH
rain 1hr
in
rain 24hr
in
rain mn
in
humidity
%
barometer
mb
20260831075517 65 0 0.0 0.0 0.00 0.00 0.00 90 1017.7
20260831075017 65 0 0.0 0.0 0.00 0.00 0.00 90 1017.6
20260831074517 65 0 0.0 0.0 0.00 0.00 0.00 90 1017.6
20260831073517 65 0 0.0 0.0 0.00 0.00 0.00 90 1017.5
20260831073017 65 0 0.0 0.0 0.00 0.00 0.00 90 1017.5
20260831072518 65 0 0.0 0.0 0.00 0.00 0.00 90 1017.4
20260831071018 65 0 0.0 0.0 0.00 0.00 0.00 90 1017.1
20260831070017 66 0 0.0 0.0 0.00 0.00 0.00 90 1017.3
20260831065017 65 0 0.0 0.0 0.00 0.00 0.00 90 1017.0
20260831064517 65 0 0.0 0.0 0.00 0.00 0.00 90 1016.9
20260831064017 65 0 0.0 0.0 0.00 0.00 0.00 90 1016.8
20260831063517 65 0 0.0 0.0 0.00 0.00 0.00 90 1016.8
20260831063017 65 0 0.0 0.0 0.00 0.00 0.00 90 1016.8
20260831062517 65 0 0.0 0.0 0.00 0.00 0.00 89 1016.6
20260831062017 65 0 0.0 0.0 0.00 0.00 0.00 89 1016.6
20260831061518 65 0 0.0 0.0 0.00 0.00 0.00 90 1016.4
20260831061017 65 0 0.0 0.0 0.00 0.00 0.00 89 1016.4
20260831060539 65 0 0.0 0.0 0.00 0.00 0.00 89 1016.4
20260831055517 64 0 0.0 0.0 0.00 0.00 0.00 89 1016.4
20260831055018 64 0 0.0 0.0 0.00 0.00 0.00 89 1016.4
20260831054517 64 0 0.0 0.0 0.00 0.00 0.00 89 1016.3
20260831054017 64 0 0.0 0.0 0.00 0.00 0.00 89 1016.3
20260831053518 64 0 0.0 0.0 0.00 0.00 0.00 89 1016.3
20260831052521 64 0 0.0 0.0 0.00 0.00 0.00 89 1016.1
20260831052018 64 0 0.0 0.0 0.00 0.00 0.00 89 1016.1
20260831051517 63 0 0.0 0.0 0.00 0.00 0.00 89 1016.1
20260831050539 62 0 0.0 0.0 0.00 0.00 0.00 87 1015.8
20260831050017 62 0 0.0 0.0 0.00 0.00 0.00 87 1015.8
20260831045017 62 0 0.0 0.0 0.00 0.00 0.00 88 1015.8
20260831044018 62 0 0.0 0.0 0.00 0.00 0.00 88 1015.8
20260831043516 62 0 0.0 0.0 0.00 0.00 0.00 87 1015.7
20260831043018 62 0 0.0 0.0 0.00 0.00 0.00 88 1015.8
20260831042517 62 0 0.0 0.0 0.00 0.00 0.00 88 1015.8
20260831041517 62 0 0.0 0.0 0.00 0.00 0.00 88 1015.6
20260831040517 61 0 0.0 0.0 0.00 0.00 0.00 87 1015.2
20260831040017 61 0 0.0 0.0 0.00 0.00 0.00 86 1015.2
20260831035517 61 0 0.0 0.0 0.00 0.00 0.00 85 1015.2
20260831035017 61 0 0.0 0.0 0.00 0.00 0.00 84 1015.3
20260831034518 60 0 0.0 0.0 0.00 0.00 0.00 82 1015.3
20260831033517 60 0 0.0 0.0 0.00 0.00 0.00 80 1015.3
20260831033017 60 0 0.0 0.0 0.00 0.00 0.00 79 1015.3
20260831031520 60 0 0.0 0.0 0.00 0.00 0.00 78 1015.3
20260831031016 60 0 0.0 0.0 0.00 0.00 0.00 78 1015.4
20260831030518 60 0 0.0 0.0 0.00 0.00 0.00 78 1015.2
20260831030019 60 0 0.0 0.0 0.00 0.00 0.00 79 1015.2
20260831025017 61 0 0.0 0.0 0.00 0.00 0.00 80 1015.7
20260831024017 61 0 0.0 0.0 0.00 0.00 0.00 83 1016.0
20260831023517 62 0 0.0 0.0 0.00 0.00 0.00 84 1016.1
20260831023017 62 0 0.0 0.0 0.00 0.00 0.00 86 1016.3
20260831022517 63 0 0.0 0.0 0.00 0.00 0.00 88 1016.6
20260831022018 63 0 0.0 0.0 0.00 0.00 0.00 87 1016.5
20260831021517 63 0 0.0 0.0 0.00 0.00 0.00 86 1016.2
20260831021017 62 0 0.0 0.0 0.00 0.00 0.00 82 1016.2
20260831020517 61 0 0.0 0.0 0.00 0.00 0.00 81 1014.6
20260831020017 61 0 0.0 0.0 0.00 0.00 0.00 83 1013.3
20260831015517 61 0 0.0 0.0 0.00 0.00 0.00 83 1013.1
20260831015017 61 0 0.0 0.0 0.00 0.00 0.00 84 1013.1
20260831014518 61 0 0.0 0.0 0.00 0.00 0.00 84 1013.1
20260831014016 61 0 0.0 0.0 0.00 0.00 0.00 83 1013.0
20260831013517 61 0 0.0 0.0 0.00 0.00 0.00 83 1012.9
20260831013017 61 0 0.0 0.0 0.00 0.00 0.00 83 1012.9
20260831012517 61 0 0.0 0.0 0.00 0.00 0.00 83 1012.9
20260831012017 61 0 0.0 0.0 0.00 0.00 0.00 82 1012.8
20260831011517 61 0 0.0 0.0 0.00 0.00 0.00 82 1012.9
20260831011017 61 0 0.0 0.0 0.00 0.00 0.00 81 1012.9
20260831010517 61 0 0.0 0.0 0.00 0.00 0.00 81 1012.9
20260831010017 61 0 0.0 0.0 0.00 0.00 0.00 80 1013.0
20260831005517 60 0 0.0 0.0 0.00 0.00 0.00 80 1012.9
20260831005018 60 0 0.0 0.0 0.00 0.00 0.00 80 1013.2
20260831004517 60 0 0.0 0.0 0.00 0.00 0.00 81 1013.1
20260831004017 60 0 0.0 0.0 0.00 0.00 0.00 82 1013.2
20260831003018 60 0 0.0 0.0 0.00 0.00 0.00 83 1013.3
20260831002517 61 0 0.0 0.0 0.00 0.00 0.00 84 1013.4
20260831002016 61 0 0.0 0.0 0.00 0.00 0.00 84 1013.5
20260831001516 61 0 0.0 0.0 0.00 0.00 0.00 85 1013.5
20260831001017 62 0 0.0 0.0 0.00 0.00 0.00 85 1013.6
20260831000517 62 0 0.0 0.0 0.00 0.00 0.00 86 1013.6
20260830235516 62 0 0.0 0.0 0.00 0.00 0.00 87 1013.7
20260830235017 63 0 0.0 0.0 0.00 0.00 0.00 88 1013.7
20260830234517 63 0 0.0 0.0 0.00 0.00 0.00 87 1013.9
20260830234017 63 0 0.0 0.0 0.00 0.00 0.00 87 1013.9
20260830233517 63 0 0.0 0.0 0.00 0.00 0.00 86 1013.7
20260830233042 63 0 0.0 0.0 0.00 0.00 0.00 86 1013.7
20260830232521 62 0 0.0 0.0 0.00 0.00 0.00 86 1013.9
20260830231017 62 0 0.0 0.0 0.00 0.00 0.00 86 1014.1
20260830230518 63 0 0.0 0.0 0.00 0.00 0.00 86 1014.0
20260830230017 63 0 0.0 0.0 0.00 0.00 0.00 86 1014.0
20260830225517 62 0 0.0 0.0 0.00 0.00 0.00 87 1014.1
20260830225017 62 0 0.0 0.0 0.00 0.00 0.00 87 1014.2
20260830224516 62 0 0.0 0.0 0.00 0.00 0.00 86 1014.2
20260830223017 62 0 0.0 0.0 0.00 0.00 0.00 86 1014.3
20260830222517 62 0 0.0 0.0 0.00 0.00 0.00 86 1014.3
20260830222017 63 0 0.0 0.0 0.00 0.00 0.00 86 1014.5
20260830220517 63 0 0.0 0.0 0.00 0.00 0.00 86 1014.7
20260830220017 63 0 0.0 0.0 0.00 0.00 0.00 86 1014.7
20260830215516 63 0 0.0 0.0 0.00 0.00 0.00 86 1014.7
20260830215018 63 0 0.0 0.0 0.00 0.00 0.00 86 1014.7
20260830214518 63 0 0.0 0.0 0.00 0.00 0.00 86 1014.7
20260830214017 63 0 0.0 0.0 0.00 0.00 0.00 87 1014.8
20260830212517 63 0 0.0 0.0 0.00 0.00 0.00 88 1014.6
20260830212017 63 0 0.0 0.0 0.00 0.00 0.00 88 1014.8
20260830211017 63 0 0.0 0.0 0.00 0.00 0.00 88 1014.7
20260830210516 63 0 0.0 0.0 0.00 0.00 0.00 88 1014.7
20260830210017 63 0 0.0 0.0 0.00 0.00 0.00 88 1014.7
20260830204518 63 0 0.0 0.0 0.00 0.00 0.00 88 1014.7
20260830204016 63 0 0.0 0.0 0.00 0.00 0.00 88 1014.6
20260830203517 63 0 0.0 0.0 0.00 0.00 0.00 88 1014.7
20260830203017 63 0 0.0 0.0 0.00 0.00 0.00 88 1014.8
20260830202516 63 0 0.0 0.0 0.00 0.00 0.00 88 1014.8
20260830202017 64 0 0.0 0.0 0.00 0.00 0.00 88 1014.9
20260830201519 64 0 0.0 0.0 0.00 0.00 0.00 88 1014.8
20260830201017 64 0 0.0 0.0 0.00 0.00 0.00 89 1014.8
20260830200519 64 0 0.0 0.0 0.00 0.00 0.00 89 1014.9
20260830200016 64 0 0.0 0.0 0.00 0.00 0.00 89 1015.0
20260830195516 64 0 0.0 0.0 0.00 0.00 0.00 89 1015.0
20260830195017 65 0 0.0 0.0 0.00 0.00 0.00 89 1015.2
20260830194017 65 0 0.0 0.0 0.00 0.00 0.00 89 1015.2
20260830193517 65 0 0.0 0.0 0.00 0.00 0.00 90 1015.2
20260830193034 66 0 0.0 0.0 0.00 0.00 0.00 90 1015.3
20260830192516 67 0 0.0 0.0 0.00 0.00 0.00 90 1015.6
20260830192045 67 0 0.0 0.0 0.00 0.00 0.00 90 1015.6
20260830191516 67 0 0.0 0.0 0.00 0.00 0.00 89 1015.4
20260830185018 70 0 0.0 0.0 0.00 0.00 0.00 88 1015.9
20260830184519 71 0 0.0 0.0 0.00 0.00 0.00 87 1015.9
20260830184017 71 0 0.0 0.0 0.00 0.00 0.00 86 1016.0
20260830183518 72 0 0.0 0.0 0.00 0.00 0.00 86 1016.1
20260830183017 72 0 0.0 0.0 0.00 0.00 0.00 86 1016.0
20260830182519 72 0 0.0 0.0 0.00 0.00 0.00 85 1016.0
20260830182018 72 0 0.0 0.0 0.00 0.00 0.00 85 1016.0
20260830181517 72 0 0.0 0.0 0.00 0.00 0.00 85 1016.0
20260830181039 72 0 0.0 0.0 0.00 0.00 0.00 85 1015.9
20260830180518 73 0 0.0 0.0 0.00 0.00 0.00 85 1015.9
20260830180016 73 0 0.0 0.0 0.00 0.00 0.00 85 1016.0
20260830174517 74 0 0.0 0.0 0.00 0.00 0.00 84 1016.1
20260830174018 74 0 0.0 0.0 0.00 0.00 0.00 84 1016.1
20260830173516 74 0 0.0 0.0 0.00 0.00 0.00 84 1016.1
20260830173017 74 0 0.0 0.0 0.00 0.00 0.00 84 1016.1
20260830172522 75 0 0.0 0.0 0.00 0.00 0.00 83 1016.2
20260830172019 75 0 0.0 0.0 0.00 0.00 0.00 83 1016.2
20260830171519 75 0 0.0 0.0 0.00 0.00 0.00 83 1016.2
20260830171017 75 0 0.0 0.0 0.00 0.00 0.00 83 1016.2
20260830170518 76 0 0.0 0.0 0.00 0.00 0.00 82 1016.3
20260830170016 75 0 0.0 0.0 0.00 0.00 0.00 82 1016.2
20260830165017 76 0 0.0 0.0 0.00 0.00 0.00 83 1016.2
20260830164519 76 0 0.0 0.0 0.00 0.00 0.00 82 1016.2
20260830164017 76 0 0.0 0.0 0.00 0.00 0.00 81 1016.2
20260830163518 76 0 0.0 0.0 0.00 0.00 0.00 82 1016.3
20260830163016 77 0 0.0 0.0 0.00 0.00 0.00 81 1016.4
20260830162016 77 0 0.0 0.0 0.00 0.00 0.00 81 1016.4
20260830161518 77 0 0.0 0.0 0.00 0.00 0.00 81 1016.3
20260830161016 77 0 0.0 0.0 0.00 0.00 0.00 81 1016.4
20260830160534 77 0 0.0 0.0 0.00 0.00 0.00 81 1016.3
20260830160016 77 0 0.0 0.0 0.00 0.00 0.00 80 1016.3
20260830155016 77 0 0.0 0.0 0.00 0.00 0.00 81 1016.5
20260830154516 77 0 0.0 0.0 0.00 0.00 0.00 81 1016.5
20260830154017 77 0 0.0 0.0 0.00 0.00 0.00 80 1016.5
20260830153517 77 0 0.0 0.0 0.00 0.00 0.00 81 1016.4
20260830153017 77 0 0.0 0.0 0.00 0.00 0.00 80 1016.4
20260830152518 77 0 0.0 0.0 0.00 0.00 0.00 80 1016.5
20260830152018 77 0 0.0 0.0 0.00 0.00 0.00 81 1016.5
20260830151518 77 0 0.0 0.0 0.00 0.00 0.00 81 1016.6
20260830151017 77 0 0.0 0.0 0.00 0.00 0.00 80 1016.6
20260830150519 78 0 0.0 0.0 0.00 0.00 0.00 80 1016.5
20260830150017 78 0 0.0 0.0 0.00 0.00 0.00 80 1016.7
20260830145517 78 0 0.0 0.0 0.00 0.00 0.00 81 1016.7
20260830145017 78 0 0.0 0.0 0.00 0.00 0.00 80 1016.6
20260830144518 78 0 0.0 0.0 0.00 0.00 0.00 80 1016.6
20260830144017 78 0 0.0 0.0 0.00 0.00 0.00 80 1016.6
20260830143516 78 0 0.0 0.0 0.00 0.00 0.00 80 1016.7
20260830143019 78 0 0.0 0.0 0.00 0.00 0.00 79 1016.7
20260830142516 78 0 0.0 0.0 0.00 0.00 0.00 79 1016.7
20260830142018 78 0 0.0 0.0 0.00 0.00 0.00 80 1016.7
20260830141517 78 0 0.0 0.0 0.00 0.00 0.00 80 1016.7
20260830140518 78 0 0.0 0.0 0.00 0.00 0.00 80 1016.7
20260830140018 78 0 0.0 0.0 0.00 0.00 0.00 80 1016.7
20260830135517 78 0 0.0 0.0 0.00 0.00 0.00 80 1016.7
20260830135016 78 0 0.0 0.0 0.00 0.00 0.00 80 1016.8
20260830134517 78 0 0.0 0.0 0.00 0.00 0.00 80 1016.7
20260830134018 78 0 0.0 0.0 0.00 0.00 0.00 79 1016.8
20260830133517 78 0 0.0 0.0 0.00 0.00 0.00 80 1016.8
20260830133017 78 0 0.0 0.0 0.00 0.00 0.00 80 1016.8
20260830132019 78 0 0.0 0.0 0.00 0.00 0.00 80 1017.1
20260830131517 78 0 0.0 0.0 0.00 0.00 0.00 80 1017.1
20260830131019 78 0 0.0 0.0 0.00 0.00 0.00 80 1017.0
20260830130018 78 0 0.0 0.0 0.00 0.00 0.00 80 1017.0
20260830125517 78 0 0.0 0.0 0.00 0.00 0.00 80 1017.1
20260830124517 77 0 0.0 0.0 0.00 0.00 0.00 80 1017.1
20260830122516 76 0 0.0 0.0 0.00 0.00 0.00 81 1017.0
20260830122017 76 0 0.0 0.0 0.00 0.00 0.00 80 1017.4
20260830121517 77 0 0.0 0.0 0.00 0.00 0.00 80 1017.5
20260830121017 77 0 0.0 0.0 0.00 0.00 0.00 80 1017.5
20260830120516 77 0 0.0 0.0 0.00 0.00 0.00 80 1017.6
20260830120017 77 0 0.0 0.0 0.00 0.00 0.00 80 1017.4
20260830115518 76 0 0.0 0.0 0.00 0.00 0.00 81 1017.5
20260830115016 76 0 0.0 0.0 0.00 0.00 0.00 81 1017.4
20260830114517 76 0 0.0 0.0 0.00 0.00 0.00 80 1017.4
20260830114018 76 0 0.0 0.0 0.00 0.00 0.00 80 1017.4
20260830113516 76 0 0.0 0.0 0.00 0.00 0.00 80 1017.5
20260830113018 75 0 0.0 0.0 0.00 0.00 0.00 80 1017.4
20260830111516 75 0 0.0 0.0 0.00 0.00 0.00 80 1017.4
20260830111019 75 0 0.0 0.0 0.00 0.00 0.00 80 1017.4
20260830110518 75 0 0.0 0.0 0.00 0.00 0.00 81 1017.6
20260830110017 75 0 0.0 0.0 0.00 0.00 0.00 81 1017.7
20260830103517 75 0 0.0 0.0 0.00 0.00 0.00 81 1017.8
20260830103017 75 0 0.0 0.0 0.00 0.00 0.00 81 1017.8
20260830102519 74 0 0.0 0.0 0.00 0.00 0.00 81 1017.8
20260830102019 74 0 0.0 0.0 0.00 0.00 0.00 81 1017.8
20260830101517 74 0 0.0 0.0 0.00 0.00 0.00 81 1017.9
20260830101019 74 0 0.0 0.0 0.00 0.00 0.00 81 1017.9
20260830095017 74 0 0.0 0.0 0.00 0.00 0.00 82 1018.2
20260830094517 74 0 0.0 0.0 0.00 0.00 0.00 82 1018.3
20260830094017 74 0 0.0 0.0 0.00 0.00 0.00 83 1018.3
20260830093519 74 0 0.0 0.0 0.00 0.00 0.00 82 1018.2
20260830093019 73 0 0.0 0.0 0.00 0.00 0.00 83 1018.0
20260830092517 73 0 0.0 0.0 0.00 0.00 0.00 82 1018.0
20260830092017 73 0 0.0 0.0 0.00 0.00 0.00 82 1018.0
20260830091517 73 0 0.0 0.0 0.00 0.00 0.00 83 1018.1
20260830091017 72 0 0.0 0.0 0.00 0.00 0.00 83 1018.1
20260830090517 72 0 0.0 0.0 0.00 0.00 0.00 84 1018.1
20260830090017 72 0 0.0 0.0 0.00 0.00 0.00 84 1018.0
20260830085517 71 0 0.0 0.0 0.00 0.00 0.00 84 1018.0
20260830085016 71 0 0.0 0.0 0.00 0.00 0.00 85 1018.0
20260830084517 71 0 0.0 0.0 0.00 0.00 0.00 84 1017.9
20260830084017 71 0 0.0 0.0 0.00 0.00 0.00 85 1018.0
20260830083517 71 0 0.0 0.0 0.00 0.00 0.00 84 1018.0
20260830083018 71 0 0.0 0.0 0.00 0.00 0.00 85 1018.0
20260830082518 71 0 0.0 0.0 0.00 0.00 0.00 85 1018.2
20260830081017 71 0 0.0 0.0 0.00 0.00 0.00 85 1018.0
20260830080518 71 0 0.0 0.0 0.00 0.00 0.00 85 1018.0